Regional Weather Roundup
Issued by NWS Cleveland, OH

Home | Current Version | Previous Version | Graphics & Text | Print | Product List | Glossary On
Versions: 1 2 3 4 5 6 7 8 9 10 11 12 13 14 15 16 17 18 19 20 21 22 23 24 25 26 27 28 29 30 31 32 33 34 35 36 37 38 39 40 41 42 43 44 45 46 47 48 49 50
000
ASUS41 KCLE 192210
RWRCLE
OHIO REGIONAL WEATHER ROUNDUP
NATIONAL WEATHER SERVICE CLEVELAND, OH
600 PM EDT THU OCT 19 2017

NOTE: "FAIR" INDICATES FEW OR NO CLOUDS BELOW 12,000 FEET WITH NO
SIGNIFICANT WEATHER AND/OR OBSTRUCTIONS TO VISIBILITY.

OHZ001>008-015>018-024>027-034-035-043-044-192300-
   NORTHWEST OHIO

CITY           SKY/WX    TMP DP  RH WIND       PRES   REMARKS
DEFIANCE       CLEAR     69  38  32 W5        30.15R
FINDLAY        CLEAR     70  49  47 W12       30.13S
TOLEDO EXPRESS CLEAR     69  40  34 W13       30.13R
TOLEDO EXEC    CLEAR     69  42  37 W9        30.13R
LIMA           CLEAR     70  51  51 W8        30.16R
$$

OHZ009>014-019>023-028>033-038-089-192300-
   NORTHEAST OHIO

CITY           SKY/WX    TMP DP  RH WIND       PRES   REMARKS
CLE-HOPKINS    PTCLDY    71  50  47 W16       30.13R
CLE-LAKEFRONT  CLEAR     70  51  51 SW14G21   30.09S
CUY CO. ARPT   PTCLDY    72  52  49 W16       30.11S
LORAIN-ELYRIA  CLEAR     70  46  42 W12       30.12S
ASHTABULA      CLOUDY    70  48  45 W15       30.10S
AKRON-CANTON   PTCLDY    69  48  47 SW15G21   30.14R
WOOSTER        CLEAR     69  49  48 SW7       30.14S
MANSFIELD      CLEAR     70  47  43 W13G18    30.15S
YOUNGSTOWN     CLOUDY    69  49  48 SW12G21   30.12S
$$

OHZ042-051>053-060>062-070>072-077>081-192300-
  SOUTHWEST OHIO

CITY           SKY/WX    TMP DP  RH WIND       PRES   REMARKS
CINC-COVINGTON PTCLDY    70  53  54 SW7       30.20S
CINC-LUNKEN    CLEAR     70  54  56 SW7       30.20S
HAMILTON       CLEAR     73  51  46 SW8       30.19S
DAYTON         PTCLDY    70  52  52 SW13      30.18S
WRIGHT-PAT AFB CLEAR     71  50  46 SW12      30.17S
DAYTON GENERAL CLEAR     71  49  45 SW9       30.18S
WILMINGTON     CLEAR     68  51  54 SW14      30.19S
$$

OHZ036-037-039>041-045>050-054>059-063>069-073>076-082>088-192300-
  CENTRAL AND SOUTHEAST OHIO

CITY           SKY/WX    TMP DP  RH WIND       PRES   REMARKS
COLUMBUS       PTCLDY    72  49  44 SW14      30.16S
OSU AIRPORT    CLEAR     72  50  45 SW13      30.16R
BOLTON FIELD   CLEAR     72  50  46 SW10      30.18R
RICKENBACK AFB CLEAR     70  49  47 SW9       30.17R
NEWARK         CLEAR     72  47  40 SW9       30.16S
MARION         CLEAR     72  45  37 W9        30.16R
LANCASTER      CLEAR     69  50  50 SW10      30.18S
ZANESVILLE     CLEAR     70  48  45 SW6       30.17S
NEW PHILLY     NOT AVBL
$$




USA.gov is the U.S. government's official web portal to all federal, state and local government web resources and services.